Location: Newark
(49.8348°N, 24.0280°E)
Time: 23:30:38
(UTC+00:00)

Tiros 1 - Visible Passes

Search period start: 22 January 2020 00:00
Search period end: 01 February 2020 00:00
Orbit: 630 x 664 km, 48.4° (Epoch: 22 January)

Date Brightness Start Highest point End Pass type
(mag) Time Alt. Az. Time Alt. Az. Time Alt. Az.
22 Jan 7.7 16:31:44 10° W 16:36:25 56° SSW 16:40:12 15° ESE visible
22 Jan 9.2 18:14:22 10° W 18:17:53 22° SW 18:17:53 22° SW visible
23 Jan 8.4 16:57:52 10° W 17:02:17 38° SSW 17:05:38 16° SE visible
23 Jan 10.0 18:41:56 10° WSW 18:43:21 12° SW 18:43:21 12° SW visible
24 Jan 7.8 15:41:41 10° W 15:46:22 58° SSW 15:51:05 10° ESE visible
24 Jan 9.2 17:24:15 10° W 17:28:00 23° SW 17:31:16 12° SSE visible
25 Jan 8.5 16:07:48 10° W 16:12:15 40° SSW 16:16:44 10° SE visible
25 Jan 9.9 17:51:34 10° WSW 17:53:33 12° SW 17:55:32 10° SSW visible
26 Jan 9.3 16:34:08 10° W 16:37:59 24° SW 16:41:51 10° SSE visible
27 Jan 10.0 17:01:16 10° WSW 17:03:33 13° SW 17:05:50 10° SSW visible
28 Jan 9.5 15:44:03 10° W 15:47:58 26° SW 15:51:54 10° SSE visible
29 Jan 10.1 16:11:01 10° WSW 16:13:33 14° SW 16:16:05 10° S visible
